User: anonymous   Login
Location: SAPM � Hemmingford
(45.0500°N, 73.5833°W)
Time: 13:17:52
(UTC-04:00)
Language:

Iridium 75 - Orbit

View from above orbital plane
View from above orbital plane
View from above satellite
View from above satellite

Ground track
Ground track

The orbit data is extracted from the following two-line orbital elements,

1 25346U 98032E   17174.68940849 +.00000113 +00000-0 +33399-4 0  9996
2 25346 086.3974 221.3911 0002347 091.2395 268.9070 14.34221419000309
Epoch (UTC): 23 June 2017 16:32:44
Eccentricity: 0.0002347
inclination: 86.3974°
perigee height: 776 km
apogee height: 779 km
right ascension of ascending node: 221.3911°
argument of perigee: 91.2395°
revolutions per day: 14.34221419
mean anomaly at epoch: 268.9070°
orbit number at epoch: 30

The dashed part of the orbit path shows where the satellite is in the earth's shadow,  

DLR